User: anonymous   Login
Location: Unspecified
(29.9680°N, 0.0000°E)
Time: 17:33:30
(UTC+00:00)
Language:

Transit 4A - Orbit

View from above orbital plane
View from above orbital plane
View from above satellite
View from above satellite

Ground track
Ground track

The orbit data is extracted from the following two-line orbital elements,

1   116U 61015A   19175.52524423 -.00000072 +00000-0 +35792-5 0  9992
2   116 066.8104 005.6406 0082667 261.2577 097.9132 13.91753978941878
Epoch (UTC): 24 June 2019 12:36:21
Eccentricity: 0.0082667
inclination: 66.8104°
perigee height: 862 km
apogee height: 983 km
right ascension of ascending node: 5.6406°
argument of perigee: 261.2577°
revolutions per day: 13.91753978
mean anomaly at epoch: 97.9132°
orbit number at epoch: 94187

The dashed part of the orbit path shows where the satellite is in the earth's shadow,  

DLR